Погода в Сабинас-Идальго

Мексика     26°30′23″N   100°10′30″W
темп.,
°C
ветер,
м/с
пор.,
м/с
влажн.,
%
обл.,
%
осадки,
мм/ч
давл.,
гПа
погр.,
м
17 апреля, сб
сб1701:00+22св3488100 3.4 1010416
04:00+18ссв5994100 9.6 1011718
07:00+15с6888100 13.4 1015690
10:00+14ссз6977100 0.7 1018728
13:00+14с456897 0.8 1018828
16:00+17ссв4558100 0.0 10151210
19:00+17ссв4646100 0.0 10161215
22:00+16всв2345100 0.0 1018416
18 апреля, вс
вс1801:00+16всв134699 0.0 1018681
04:00+15св2352100 0.0 1018595
07:00+13св235698 0.0 1019550
10:00+14св335376 0.0 1021834
13:00+18св54414 0.0 10191397
16:00+20всв543820 0.0 10161644
19:00+18всв54410 0.0 10171357
22:00+15вюв35525 0.0 1018209
19 апреля, пн
пн1901:00+13вюв225745 0.0 101929
04:00+12вюв11630 0.0 101811
07:00+11всв11675 0.0 101810
10:00+16в22505 0.0 1019841
13:00+19в334034 0.0 10161592
16:00+22всв433613 0.0 10121679
19:00+21всв5441100 0.0 10121255
22:00+17в2464100 0.0 1015192
20 апреля, вт
вт2001:00+16юв1172100 0.0 101619
04:00+15ююз2275100 0.0 101440
07:00+14юз1185100 0.0 101514
10:00+20ююз11595 0.0 1016495
13:00+26в11355 0.0 10141324
16:00+29всв43260 0.0 10112324
19:00+27в66325 0.0 10121049
22:00+22юв235533 0.0 101566
21 апреля, ср
ср2101:00+20вюв236271 0.0 101672
04:00+18ссв348482 0.1 1018182
07:00+14ссв4489100 1.6 1020445
10:00+12св2379100 0.5 1023435
13:00+14св236791 0.5 1022646
16:00+16в3461100 0.0 1019867
19:00+17юв2465100 0.0 1017807
22:00+17юв1467100 0.0 1018407